Tracking 19280 objects as of 15-Nov-2018
HD Live streaming from Space Station
objects crossing your sky now

ST5-A

Track ST5-A now!
10-day predictions
ST5-A is classified as:


NORAD ID: 28980
Int'l Code: 2006-008A
Perigee: 309.9 km
Apogee: 3,725.1 km
Inclination: 105.5 °
Period: 127.4 minutes
Semi major axis: 8388 km
RCS: 0.3025 m2 (medium)
Launch date: March 22, 2006
Source: United States (US)
Launch site: Pegasus launched from Western Range Air Space (WRAS)
aabbcc
Your satellite tracking list
Your tracking list is empty




NASA's NSSDC Master Catalog

Two Line Element Set (TLE):
1 28980U 06008A   18318.66701846 +.00003343 +00000-0 +16210-3 0  9996
2 28980 105.5330 195.4251 2035650 223.6643 118.4377 11.29989206501396
Source of the keplerian elements: AFSPC